[[{"header":{"parameterUnit":"m.s-1","parameterCategory":2,"la1":30.2991,"la2":30.254,"lo1":-89.0895,"lo2":-89.0444,"dy":0.0017,"dx":0.0017,"nx":28,"ny":28,"refTime":"2025-12-16T03:00:00:Z","depth":"0","parameterNumber":2,"parameterNumberName":"U-component_of_CURRENTS"},"data":[0,0,0,0,0,0,0,0,0,0,0,0,0,0,0,0,0,0,0,0,0,0,0,0,0,0,0,0,0,0,0,0,0,0,0,0,0,0,0,0,0,0,0,0,0,0,0,0,0,0,0,0,0,0,0,0,0,0,0.3131,0.3132,0,0.3162,0.3162,0.3162,0.3151,0.3151,0.315,0.315,0.313,0.313,0.3129,0,0,0,0,0,0,0,0,0,0,0,0,0,0.3068,0.3069,0.3131,0.3132,0.3133,0.3162,0.3162,0.3162,0.3151,0.3151,0.315,0.315,0.313,0.313,0.3129,0,0,0,0,0,0,0,0,0,0,0,0,0,0.3093,0.3069,0.3131,0.3134,0.3135,0.3162,0.3162,0.3162,0.3151,0.3151,0.315,0.315,0.313,0.313,0.3129,0.3136,0,0,0.3128,0.3128,0,0,0,0,0,0,0,0,0.3092,0.3095,0.3133,0.3134,0.3135,0.3156,0.3133,0.3152,0.3151,0.314,0.315,0.3149,0.3137,0.3136,0.3137,0.3135,0.3134,0.3128,0.3128,0.3128,0.3127,0,0,0,0,0,0,0,0.309,0.3093,0.3139,0.3134,0.3135,0.3136,0.3138,0.3136,0.3136,0.3141,0.3141,0.3152,0.3136,0.3138,0.3137,0.3134,0.3128,0.3128,0.3127,0.3127,0.3161,0.3162,0,0,0,0,0,0,0.3095,0.3092,0.3138,0.314,0.3117,0.3138,0.314,0.3146,0.3138,0.3138,0.3152,0.3151,0.3139,0.3137,0.3136,0.3164,0.3128,0.3127,0.3127,0.316,0.3161,0.3163,0,0,0,0,0,0,0.3094,0.3099,0.3137,0.312,0.3126,0.314,0.3146,0.3147,0.3152,0.3148,0.3145,0.3158,0.3138,0.3136,0.3144,0.3162,0.3127,0.3127,0.3159,0.316,0.3162,0.3206,0,0,0,0,0,0,0.3092,0.3098,0.3102,0.3121,0.3127,0.3158,0.3147,0.3148,0.3161,0.316,0.3151,0.3149,0.3138,0.3145,0.3144,0.3161,0.3126,0.3157,0.316,0.3162,0.3203,0.3209,0.3214,0,0,0,0,0,0.3089,0.3097,0.3102,0.3108,0.3133,0.3159,0.3162,0.3167,0.3162,0.3168,0.3166,0.3149,0.3157,0.3145,0.3144,0.3161,0.3156,0.3159,0.3161,0.32,0.3208,0.3214,0,0,0,0,0,0,0.3063,0.3097,0.3103,0.3118,0.3141,0.3158,0.3167,0.3172,0.3175,0.3172,0.3161,0.3159,0.3175,0.3164,0.315,0.3179,0.3155,0.3158,0.3186,0.3192,0.3197,0.3211,0.3126,0,0,0,0,0,0.3064,0.3081,0.3111,0.3122,0.3136,0.3153,0.3163,0.3169,0.3178,0.3179,0.3176,0.3176,0.3185,0.3184,0.3187,0.3198,0.3219,0.321,0.3215,0.322,0.3231,0.3285,0.3297,0.3171,0.3171,0.3171,0,0,0.3057,0.3078,0.3086,0.3119,0.3134,0.316,0.3156,0.3177,0.3196,0.3176,0.3194,0.3194,0.3193,0.321,0.3216,0.3201,0.3269,0.3223,0.3227,0.3236,0.3289,0.3302,0.3313,0.3173,0.3172,0.3172,0,0,0.3055,0.3072,0.3088,0.3114,0.3148,0.3163,0.3172,0.3197,0.3205,0.3225,0.3222,0.3237,0.3239,0.325,0.3254,0.3292,0.3299,0.329,0.3324,0.3376,0.3387,0.3397,0.3449,0.3463,0.3289,0.3289,0.3289,0,0.3042,0.3073,0.3096,0.3123,0.3148,0.3168,0.3194,0.321,0.3232,0.3248,0.3234,0.3269,0.3263,0.3301,0.3313,0.3305,0.3337,0.3297,0.3384,0.3394,0.3404,0.3454,0.3469,0.3291,0.3291,0.3291,0.3291,0,0.3065,0.3088,0.3101,0.3145,0.3171,0.3197,0.3232,0.3252,0.3264,0.3284,0.3322,0.3324,0.3346,0.3348,0.334,0.3404,0.3407,0.3388,0.3368,0.3419,0.3469,0.3484,0.3295,0.3294,0.3293,0.3293,0,0,0.3025,0.3103,0.3102,0.3127,0.3188,0.3204,0.3249,0.3295,0.3328,0.3347,0.3393,0.3411,0.3418,0.3424,0.3422,0.3464,0.3555,0.3456,0.3458,0.3509,0.3682,0.3625,0.3636,0.3555,0.3558,0.356,0.3693,0,0.3031,0.3082,0.3123,0.3164,0.3195,0.3239,0.3281,0.3324,0.3361,0.3409,0.3432,0.3472,0.3446,0.3464,0.3502,0.3547,0.3595,0.3521,0.3624,0.3627,0.3571,0.3651,0.3483,0.3582,0.3708,0.371,0.3712,0,0.3035,0.307,0.3119,0.3184,0.3201,0.3229,0.3299,0.3339,0.342,0.3456,0.3505,0.353,0.3599,0.3564,0.3674,0.3631,0.3664,0.3691,0.3697,0.3639,0.3598,0.355,0.3605,0.3503,0.3735,0.3733,0.3732,0,0.2995,0.3059,0.3096,0.3121,0.3202,0.3227,0.3266,0.3347,0.3391,0.349,0.3545,0.3617,0.3668,0.3723,0.3775,0.374,0.3898,0.3853,0.3835,0.3831,0.3705,0.3685,0.3672,0.3937,0.3937,0.3937,0.3936,0,0.2992,0.3012,0.3076,0.3097,0.3132,0.3198,0.3248,0.331,0.3406,0.3473,0.356,0.3625,0.3714,0.3801,0.3827,0.3889,0.3944,0.3868,0.3871,0.3715,0.3695,0.3613,0.3565,0.3942,0.3941,0.394,0.3939,0,0.2949,0.2999,0.3032,0.3101,0.3118,0.3138,0.3221,0.3264,0.3377,0.3473,0.3514,0.3662,0.3784,0.3868,0.398,0.3959,0.3906,0.402,0.3833,0.381,0.3657,0.3618,0.3535,0.3427,0.4021,0.4021,0.402,0,0.2937,0.2953,0.3007,0.3022,0.3051,0.309,0.3126,0.323,0.3294,0.348,0.3531,0.369,0.3783,0.3942,0.3946,0.401,0.3898,0.3882,0.377,0.3649,0.3609,0.3492,0.3398,0.3631,0.3628,0.3625,0.3622,0,0.2895,0.2913,0.294,0.2968,0.2994,0.3024,0.309,0.3132,0.3273,0.3364,0.3492,0.3581,0.3756,0.3746,0.3847,0.385,0.3678,0.3822,0.3746,0.3351,0.3175,0.307,0.3552,0.3596,0.3599,0.3601,0.3602,0.3603,0.2844,0.2844,0.2873,0.2895,0.2922,0.2939,0.2923,0.3014,0.3073,0.3173,0.3345,0.3408,0.3523,0.3628,0.3629,0.3506,0.3508,0.3383,0.3367,0.3277,0.3092,0.3521,0.353,0.3532,0.3534,0.3535,0.3537,0,0.2749,0.2769,0.2796,0.2798,0.2783,0.2834,0.2878,0.2844,0.2853,0.2986,0.3061,0.3117,0.3142,0.3221,0.319,0.307,0.2936,0.298,0.2767,0.2712,0.3141,0.304,0.2882,0.2882,0.2882,0.2882,0.2883,0.2883,0.2698,0.2678,0.2697,0.2642,0.2647,0.2564,0.2555,0.2536,0.2584,0.2573,0.2583,0.268,0.287,0.2933,0.2825,0.2752,0.2535,0.2418,0.2437,0.2729,0.2764,0.2798,0.2692,0.2463,0.2463,0.1876,0.1871,0.1868]},{"header":{"parameterUnit":"m.s-1","parameterCategory":2,"la1":30.2991,"la2":30.254,"lo1":-89.0895,"lo2":-89.0444,"dy":0.0017,"dx":0.0017,"nx":28,"ny":28,"refTime":"2025-12-16T03:00:00:Z","depth":"0","parameterNumber":3,"parameterNumberName":"V-component_of_CURRENTS"},"data":[0,0,0,0,0,0,0,0,0,0,0,0,0,0,0,0,0,0,0,0,0,0,0,0,0,0,0,0,0,0,0,0,0,0,0,0,0,0,0,0,0,0,0,0,0,0,0,0,0,0,0,0,0,0,0,0,0,0,-0.0247,-0.0247,0,-0.0306,-0.0306,-0.0307,-0.0355,-0.0356,-0.0356,-0.0357,-0.0456,-0.0459,-0.0461,0,0,0,0,0,0,0,0,0,0,0,0,0,-0.0183,-0.0184,-0.0247,-0.0247,-0.0248,-0.0306,-0.0306,-0.0307,-0.0355,-0.0356,-0.0356,-0.0357,-0.0456,-0.0458,-0.0461,0,0,0,0,0,0,0,0,0,0,0,0,0,-0.0223,-0.0184,-0.0247,-0.0279,-0.0283,-0.0305,-0.0306,-0.0307,-0.0355,-0.0356,-0.0357,-0.0357,-0.0455,-0.0458,-0.0461,-0.0466,0,0,-0.0471,-0.0473,0,0,0,0,0,0,0,0,-0.0221,-0.0225,-0.0274,-0.0277,-0.0281,-0.0324,-0.0321,-0.0362,-0.0355,-0.0327,-0.0357,-0.0358,-0.0415,-0.0422,-0.0431,-0.047,-0.0475,-0.0471,-0.0473,-0.0475,-0.0476,0,0,0,0,0,0,0,-0.0218,-0.0223,-0.027,-0.0274,-0.0279,-0.0293,-0.03,-0.0329,-0.0367,-0.033,-0.0333,-0.034,-0.0418,-0.0427,-0.0433,-0.0476,-0.0471,-0.0474,-0.0476,-0.0478,-0.0528,-0.0527,0,0,0,0,0,0,-0.021,-0.022,-0.0268,-0.0272,-0.0252,-0.0294,-0.0301,-0.0309,-0.0366,-0.0375,-0.0339,-0.0342,-0.0421,-0.0429,-0.0437,-0.0434,-0.0475,-0.0478,-0.048,-0.0528,-0.0528,-0.0527,0,0,0,0,0,0,-0.0208,-0.0213,-0.0266,-0.0247,-0.0255,-0.0294,-0.0303,-0.031,-0.0319,-0.0373,-0.0383,-0.0341,-0.0422,-0.0433,-0.0455,-0.0439,-0.0479,-0.0482,-0.0529,-0.0528,-0.0527,-0.0435,0,0,0,0,0,0,-0.0206,-0.0213,-0.021,-0.0247,-0.0256,-0.027,-0.0302,-0.0311,-0.0322,-0.0326,-0.0377,-0.0388,-0.0424,-0.045,-0.0458,-0.0444,-0.0485,-0.053,-0.0529,-0.0528,-0.0439,-0.0432,-0.0425,0,0,0,0,0,-0.0204,-0.0196,-0.0209,-0.0215,-0.0253,-0.0269,-0.0274,-0.0305,-0.0321,-0.0317,-0.0352,-0.0386,-0.0449,-0.0452,-0.0462,-0.0448,-0.053,-0.0529,-0.0528,-0.0443,-0.0433,-0.0425,0,0,0,0,0,0,-0.0162,-0.0201,-0.0217,-0.022,-0.0239,-0.0277,-0.0277,-0.0297,-0.0321,-0.0326,-0.0377,-0.0389,-0.0406,-0.0438,-0.044,-0.046,-0.0495,-0.0496,-0.0427,-0.0419,-0.0412,-0.039,-0.0488,0,0,0,0,0,-0.0152,-0.016,-0.0194,-0.0195,-0.0203,-0.0237,-0.0247,-0.0267,-0.0295,-0.0306,-0.0342,-0.0379,-0.0407,-0.0421,-0.0454,-0.0461,-0.0477,-0.046,-0.0452,-0.0446,-0.0435,-0.0446,-0.0438,-0.0522,-0.0522,-0.0522,0,0,-0.0136,-0.0158,-0.0163,-0.0187,-0.0206,-0.0204,-0.0245,-0.0253,-0.0249,-0.0313,-0.0318,-0.0358,-0.0405,-0.0414,-0.0424,-0.0439,-0.0428,-0.0444,-0.0438,-0.0431,-0.0443,-0.0435,-0.0428,-0.0521,-0.0522,-0.0522,0,0,-0.0105,-0.0127,-0.0121,-0.0132,-0.0155,-0.0175,-0.0173,-0.0206,-0.0218,-0.023,-0.0273,-0.0297,-0.0343,-0.0366,-0.0385,-0.0357,-0.0393,-0.0372,-0.0313,-0.0323,-0.0316,-0.031,-0.0303,-0.0297,-0.0364,-0.0363,-0.0363,0,-0.008,-0.008,-0.0119,-0.0111,-0.0111,-0.0156,-0.0138,-0.0155,-0.0189,-0.0187,-0.0222,-0.0273,-0.0318,-0.0318,-0.0313,-0.034,-0.0346,-0.034,-0.0311,-0.0306,-0.0301,-0.0296,-0.0291,-0.0359,-0.0359,-0.036,-0.036,0,-0.0044,-0.004,-0.0034,-0.0042,-0.0046,-0.0038,-0.0065,-0.0067,-0.0093,-0.011,-0.0122,-0.0182,-0.021,-0.0229,-0.0266,-0.025,-0.0265,-0.0302,-0.0328,-0.0287,-0.0284,-0.028,-0.0352,-0.0354,-0.0355,-0.0357,0,0,0.001,-0.0006,0.0,0.0013,-0.0006,-0.0,0.0009,0.0012,0.0037,-0.0014,0.0014,-0.0052,-0.0086,-0.011,-0.0158,-0.0169,-0.0146,-0.0215,-0.0217,-0.0197,-0.0149,-0.0162,-0.016,-0.0177,-0.0176,-0.0176,-0.0154,0,0.0057,0.0088,0.0066,0.0108,0.0125,0.0096,0.0112,0.0108,0.0098,0.0113,0.0053,0.0045,-0.0039,-0.0048,-0.0073,-0.0123,-0.0134,-0.0148,-0.0202,-0.0203,-0.0211,-0.0155,-0.0161,-0.0143,-0.015,-0.015,-0.0149,0,0.0107,0.0123,0.0164,0.0188,0.0195,0.0209,0.0244,0.0258,0.026,0.0248,0.0228,0.0178,0.0153,0.0069,0.0007,0.0005,-0.0065,-0.0113,-0.0114,-0.0156,-0.0209,-0.0191,-0.0136,-0.0294,-0.0144,-0.0144,-0.0145,0,0.0169,0.0198,0.0235,0.0242,0.0254,0.0274,0.0289,0.0301,0.0341,0.0342,0.0374,0.031,0.0301,0.0205,0.0091,0.0053,0.0034,-0.0035,-0.0112,-0.0113,-0.0144,-0.0149,-0.024,-0.0083,-0.0084,-0.0084,-0.0084,0,0.0228,0.0263,0.0267,0.0289,0.0353,0.0339,0.0411,0.0418,0.0456,0.0537,0.0452,0.05,0.0333,0.0294,0.0161,0.006,0.0084,-0.0081,-0.0104,-0.0111,-0.0114,-0.0276,-0.0372,-0.0083,-0.0083,-0.0083,-0.0083,0,0.0284,0.0282,0.0333,0.0361,0.0378,0.0425,0.0491,0.0555,0.0574,0.0683,0.0689,0.0658,0.0611,0.0458,0.0322,0.0171,-0.003,0.0005,0.0018,-0.0005,-0.0249,-0.0338,-0.0452,-0.0506,-0.0074,-0.0074,-0.0074,0,0.0315,0.0341,0.0392,0.0436,0.045,0.0515,0.0573,0.0605,0.0693,0.0797,0.0872,0.0847,0.0873,0.0677,0.0397,0.0185,0.0008,0.0005,-0.009,-0.0241,-0.0359,-0.0433,-0.0476,-0.0086,-0.0086,-0.0087,-0.0087,0,0.0383,0.039,0.0433,0.0517,0.0581,0.0668,0.0762,0.0848,0.0927,0.1035,0.1178,0.1209,0.1015,0.0795,0.0464,0.0285,-0.011,-0.0007,-0.017,-0.0373,-0.0452,-0.0521,-0.0114,-0.0088,-0.0088,-0.0088,-0.0088,-0.0088,0.0438,0.0477,0.0529,0.0612,0.0697,0.0823,0.0915,0.1046,0.1208,0.1393,0.1406,0.1484,0.1117,0.0675,0.0415,-0.0107,-0.0112,-0.0289,-0.038,-0.0436,-0.0512,-0.0096,-0.0101,-0.0101,-0.0101,-0.0101,-0.0101,0,0.0509,0.0548,0.0628,0.0729,0.0838,0.0867,0.1048,0.1162,0.1378,0.1539,0.1669,0.1519,0.1093,0.0617,-0.007,-0.0424,-0.0559,-0.062,-0.0742,-0.0763,-0.0395,-0.0422,-0.0488,-0.0488,-0.0488,-0.0488,-0.0488,-0.0488,0.0549,0.0627,0.0659,0.0833,0.0915,0.1071,0.1183,0.1364,0.1507,0.1695,0.1729,0.1727,0.1335,0.0176,-0.0613,-0.0788,-0.1028,-0.1093,-0.1188,-0.0971,-0.0948,-0.0926,-0.0974,-0.1155,-0.1156,-0.1516,-0.152,-0.1523]}],[{"header":{"parameterUnit":"m.s-1","parameterCategory":2,"la1":30.2991,"la2":30.254,"lo1":-89.0895,"lo2":-89.0444,"dy":0.0017,"dx":0.0017,"nx":28,"ny":28,"refTime":"2025-12-16T03:00:00:Z","depth":"2","parameterNumber":2,"parameterNumberName":"U-component_of_CURRENTS"},"data":[0,0,0,0,0,0,0,0,0,0,0,0,0,0,0,0,0,0,0,0,0,0,0,0,0,0,0,0,0,0,0,0,0,0,0,0,0,0,0,0,0,0,0,0,0,0,0,0,0,0,0,0,0,0,0,0,0,0,0.2541,0.2542,0,0.2581,0.258,0.258,0.2559,0.2558,0.2558,0.2557,0.2587,0.2588,0.2589,0,0,0,0,0,0,0,0,0,0,0,0,0,0.2453,0.2454,0.2541,0.2542,0.2543,0.2581,0.258,0.258,0.2559,0.2558,0.2558,0.2557,0.2587,0.2588,0.2589,0,0,0,0,0,0,0,0,0,0,0,0,0,0.2484,0.2454,0.2541,0.2542,0.2544,0.2581,0.258,0.258,0.2559,0.2558,0.2558,0.2557,0.2586,0.2588,0.2589,0.2612,0,0,0.2595,0.2595,0,0,0,0,0,0,0,0,0.2482,0.2487,0.2541,0.2542,0.2544,0.2571,0.2561,0.2593,0.2559,0.2545,0.2557,0.2557,0.2586,0.2588,0.2586,0.2613,0.2615,0.2595,0.2596,0.2597,0.2597,0,0,0,0,0,0,0,0.248,0.2485,0.2549,0.2542,0.2544,0.2544,0.2547,0.2566,0.2562,0.2546,0.2546,0.2563,0.2585,0.2584,0.2586,0.2615,0.2595,0.2596,0.2597,0.2598,0.2663,0.2664,0,0,0,0,0,0,0.2491,0.2483,0.2548,0.2551,0.252,0.2547,0.255,0.2556,0.2562,0.2565,0.2564,0.2562,0.2581,0.2584,0.2587,0.2637,0.2597,0.2598,0.2599,0.2663,0.2663,0.2664,0,0,0,0,0,0,0.2489,0.2496,0.2546,0.2524,0.2532,0.255,0.2557,0.2558,0.2571,0.2577,0.2578,0.2579,0.2581,0.2585,0.2606,0.2637,0.2599,0.2601,0.2662,0.2663,0.2664,0.2722,0,0,0,0,0,0,0.2486,0.2495,0.2508,0.2525,0.2534,0.2569,0.2559,0.2559,0.2585,0.2584,0.2591,0.2592,0.2581,0.2603,0.2607,0.2639,0.2602,0.2661,0.2662,0.2663,0.2719,0.2725,0.273,0,0,0,0,0,0.2482,0.25,0.2507,0.2516,0.2549,0.257,0.2573,0.2579,0.2587,0.2589,0.2594,0.2592,0.2614,0.2605,0.261,0.2643,0.266,0.2662,0.2663,0.2717,0.2724,0.273,0,0,0,0,0,0,0.2473,0.2501,0.2509,0.2536,0.2555,0.2569,0.2587,0.2595,0.2602,0.2607,0.2604,0.2605,0.264,0.2629,0.2619,0.2662,0.2637,0.2639,0.2676,0.2682,0.2687,0.2702,0.2603,0,0,0,0,0,0.2479,0.2493,0.2522,0.2543,0.256,0.2578,0.2594,0.2599,0.2611,0.2614,0.2618,0.2627,0.2649,0.2655,0.2666,0.2691,0.2697,0.2712,0.2718,0.2722,0.2736,0.2768,0.2778,0.2669,0.2669,0.2669,0,0,0.2477,0.2502,0.2506,0.2542,0.256,0.2583,0.2583,0.2612,0.2629,0.2619,0.2641,0.2654,0.2661,0.2687,0.27,0.2682,0.2756,0.2724,0.2728,0.274,0.2771,0.2782,0.2792,0.267,0.267,0.267,0,0,0.2485,0.2509,0.2525,0.2543,0.2584,0.26,0.2615,0.2638,0.2646,0.2674,0.2676,0.2705,0.2724,0.2733,0.2744,0.2786,0.279,0.2791,0.2826,0.2857,0.2867,0.2876,0.2898,0.2908,0.2785,0.2785,0.2785,0,0.2488,0.2513,0.2532,0.2558,0.2579,0.2611,0.2633,0.2652,0.2674,0.2691,0.2686,0.2741,0.2749,0.2794,0.2808,0.2802,0.2817,0.2804,0.2866,0.2875,0.2883,0.2903,0.2914,0.2788,0.2788,0.2788,0.2787,0,0.2502,0.2529,0.2546,0.2585,0.2604,0.2633,0.2665,0.2688,0.2714,0.2733,0.2786,0.2799,0.2828,0.2841,0.2844,0.2905,0.2897,0.2878,0.2854,0.2898,0.2916,0.2926,0.2793,0.2791,0.2791,0.279,0,0,0.249,0.2546,0.2552,0.2568,0.2622,0.2634,0.268,0.2724,0.2766,0.2791,0.2837,0.2883,0.29,0.2914,0.2923,0.2955,0.3027,0.2947,0.2947,0.2977,0.3099,0.3044,0.3049,0.3023,0.3025,0.3027,0.309,0,0.2501,0.2541,0.257,0.2603,0.2624,0.2665,0.2706,0.2747,0.2792,0.2842,0.2879,0.2934,0.2925,0.2959,0.2988,0.3031,0.3056,0.3012,0.3046,0.3047,0.2999,0.306,0.2823,0.2856,0.31,0.3101,0.3102,0,0.2503,0.2531,0.2566,0.2614,0.263,0.2661,0.273,0.2768,0.2851,0.2894,0.295,0.2984,0.3055,0.3034,0.3115,0.3091,0.3102,0.3121,0.3123,0.3061,0.3011,0.2851,0.2864,0.3119,0.3117,0.3116,0.3115,0,0.2465,0.2522,0.2549,0.2563,0.263,0.266,0.2704,0.2786,0.2837,0.2936,0.2989,0.306,0.3111,0.3148,0.3186,0.3165,0.3265,0.3229,0.3182,0.3178,0.2978,0.2952,0.3275,0.3275,0.3275,0.3275,0.3274,0,0.2455,0.2465,0.2537,0.2548,0.2589,0.2642,0.2706,0.2769,0.2877,0.2935,0.3012,0.3068,0.3147,0.3202,0.3218,0.324,0.3285,0.3211,0.3199,0.299,0.2966,0.3188,0.3178,0.3277,0.3276,0.3276,0.3276,0,0.2393,0.2441,0.2466,0.2546,0.2571,0.2596,0.2702,0.2755,0.2866,0.2947,0.2987,0.3106,0.3185,0.324,0.3314,0.3278,0.3308,0.3292,0.3043,0.3001,0.319,0.3181,0.3258,0.3257,0.3256,0.3255,0.3254,0,0.2366,0.2381,0.2452,0.2471,0.2509,0.2563,0.2613,0.2737,0.2792,0.2948,0.2976,0.3103,0.3143,0.3239,0.3235,0.326,0.3302,0.303,0.2944,0.3212,0.3193,0.3186,0.3179,0.2699,0.2694,0.2689,0.2686,0,0.2314,0.2345,0.237,0.2413,0.2458,0.2495,0.257,0.2617,0.275,0.2816,0.2899,0.2958,0.3068,0.2992,0.3043,0.3018,0.3014,0.2944,0.3295,0.2745,0.2691,0.2671,0.2681,0.2648,0.2652,0.2655,0.2657,0.2658,0.2274,0.2275,0.2315,0.2341,0.2384,0.2402,0.2393,0.2472,0.2521,0.2583,0.2725,0.2725,0.2789,0.275,0.2684,0.2646,0.2847,0.2707,0.2717,0.2733,0.2662,0.261,0.2538,0.2541,0.2543,0.2546,0.2548,0,0.2212,0.2214,0.224,0.2252,0.2245,0.2304,0.2338,0.2298,0.2282,0.2387,0.2428,0.2276,0.2252,0.232,0.2211,0.2227,0.2177,0.213,0.2035,0.2077,0.2113,0.2006,0.1711,0.1707,0.1705,0.1702,0,0,0.2168,0.2142,0.2146,0.2092,0.2112,0.2054,0.2039,0.1997,0.202,0.1976,0.1972,0.2153,0.2259,0.1946,0.1925,0.1793,0.1912,0.1728,0.2409,0.234,0.2372,0.2469,0.2356,0,0,0,0,0]},{"header":{"parameterUnit":"m.s-1","parameterCategory":2,"la1":30.2991,"la2":30.254,"lo1":-89.0895,"lo2":-89.0444,"dy":0.0017,"dx":0.0017,"nx":28,"ny":28,"refTime":"2025-12-16T03:00:00:Z","depth":"2","parameterNumber":3,"parameterNumberName":"V-component_of_CURRENTS"},"data":[0,0,0,0,0,0,0,0,0,0,0,0,0,0,0,0,0,0,0,0,0,0,0,0,0,0,0,0,0,0,0,0,0,0,0,0,0,0,0,0,0,0,0,0,0,0,0,0,0,0,0,0,0,0,0,0,0,0,0.0137,0.0137,0,0.0085,0.0085,0.0084,0.0049,0.0049,0.0049,0.0049,-0.0034,-0.0036,-0.0038,0,0,0,0,0,0,0,0,0,0,0,0,0,0.0171,0.0171,0.0138,0.0137,0.0136,0.0085,0.0085,0.0084,0.0049,0.0049,0.0049,0.0049,-0.0034,-0.0036,-0.0038,0,0,0,0,0,0,0,0,0,0,0,0,0,0.0141,0.0171,0.0138,0.0113,0.011,0.0086,0.0085,0.0084,0.0049,0.0049,0.0049,0.0048,-0.0033,-0.0036,-0.0039,-0.005,0,0,-0.0048,-0.0049,0,0,0,0,0,0,0,0,0.0143,0.014,0.0117,0.0115,0.0111,0.0073,0.0066,0.0037,0.005,0.0072,0.0049,0.0048,-0.0001,-0.0006,-0.0015,-0.0054,-0.0057,-0.0048,-0.005,-0.0051,-0.0052,0,0,0,0,0,0,0,0.0145,0.0142,0.0117,0.0117,0.0113,0.0092,0.0088,0.006,0.0038,0.007,0.0068,0.0062,-0.0003,-0.0012,-0.0017,-0.0059,-0.0048,-0.0051,-0.0052,-0.0054,-0.0109,-0.0109,0,0,0,0,0,0,0.0154,0.0144,0.0118,0.0115,0.0127,0.0092,0.0087,0.0086,0.0039,0.0031,0.0062,0.0061,-0.0007,-0.0014,-0.002,-0.0025,-0.0051,-0.0054,-0.0056,-0.0109,-0.0109,-0.0108,0,0,0,0,0,0,0.0155,0.0153,0.0121,0.0128,0.0123,0.0092,0.0091,0.0085,0.0075,0.0033,0.0025,0.0058,-0.0007,-0.0016,-0.0035,-0.0029,-0.0055,-0.0058,-0.011,-0.0109,-0.0109,-0.0042,0,0,0,0,0,0,0.0156,0.0153,0.0154,0.0129,0.0123,0.0117,0.0091,0.0084,0.0072,0.0069,0.0027,0.0019,-0.0008,-0.003,-0.0038,-0.0034,-0.006,-0.011,-0.0109,-0.0109,-0.0045,-0.004,-0.0035,0,0,0,0,0,0.0158,0.0167,0.0155,0.0152,0.0126,0.0118,0.0113,0.0089,0.0072,0.0077,0.0048,0.002,-0.0032,-0.0032,-0.0041,-0.0038,-0.011,-0.0109,-0.0109,-0.0047,-0.0041,-0.0035,0,0,0,0,0,0,0.0184,0.0163,0.015,0.0152,0.0139,0.0112,0.011,0.0092,0.0072,0.0066,0.0026,0.0017,0.0001,-0.0027,-0.0026,-0.0052,-0.0077,-0.0078,-0.0027,-0.0021,-0.0016,0.0,-0.0063,0,0,0,0,0,0.019,0.0188,0.0168,0.0169,0.0164,0.0137,0.0128,0.0113,0.0092,0.0083,0.0053,0.0021,-0.0004,-0.0017,-0.0044,-0.0057,-0.0085,-0.0062,-0.0057,-0.0053,-0.0046,-0.0078,-0.0075,-0.0106,-0.0106,-0.0106,0,0,0.0201,0.0187,0.0187,0.0174,0.0159,0.0166,0.0131,0.0125,0.0129,0.0076,0.0071,0.0036,-0.0003,-0.0016,-0.0026,-0.0037,-0.0059,-0.0052,-0.0048,-0.0043,-0.0077,-0.0074,-0.0072,-0.0106,-0.0106,-0.0106,0,0,0.0227,0.0211,0.0221,0.0215,0.0198,0.0185,0.0186,0.0162,0.0151,0.0139,0.0104,0.0078,0.0038,0.0016,-0.0002,0.0013,-0.0032,-0.0001,0.0038,0.0006,0.0009,0.001,-0.0018,-0.002,0.0002,0.0002,0.0003,0,0.0239,0.025,0.0224,0.0234,0.0237,0.0199,0.0219,0.0203,0.0176,0.0171,0.0147,0.0092,0.0055,0.0043,0.0046,0.0024,-0.0001,0.002,0.0014,0.0015,0.0015,-0.0015,-0.0017,0.0006,0.0005,0.0005,0.0005,0,0.0276,0.0285,0.0292,0.0293,0.0294,0.0303,0.0284,0.0278,0.0253,0.0233,0.0211,0.0159,0.0129,0.0109,0.008,0.0068,0.0047,0.0024,0.0002,0.0023,-0.0011,-0.0014,0.001,0.0009,0.0008,0.0007,0,0,0.0307,0.0317,0.032,0.0336,0.0328,0.0336,0.0342,0.0341,0.0351,0.0305,0.0311,0.0253,0.0218,0.0195,0.0151,0.0119,0.0096,0.0077,0.0074,0.0055,0.0028,0.0004,-0.0003,0.0071,0.0071,0.007,0.0004,0,0.0345,0.0384,0.0377,0.0419,0.0441,0.0418,0.0431,0.0421,0.0403,0.0397,0.0332,0.0317,0.0254,0.024,0.0197,0.0125,0.0089,0.0116,0.0005,0.0002,-0.0017,-0.0007,0.0018,-0.004,-0.0,-0.0001,-0.0001,0,0.0387,0.0408,0.0456,0.0488,0.0496,0.0512,0.0532,0.0541,0.0518,0.0503,0.0469,0.0417,0.0365,0.0306,0.0191,0.0212,0.0127,0.0062,0.0058,0.0011,-0.0029,-0.0056,-0.0048,-0.0008,-0.0007,-0.0007,-0.0006,0,0.0428,0.0467,0.051,0.052,0.0544,0.056,0.0574,0.057,0.0599,0.0574,0.0583,0.0503,0.0473,0.0357,0.0215,0.0204,0.0085,0.0053,-0.0049,-0.0052,-0.0065,-0.0068,-0.003,-0.003,-0.003,-0.0029,-0.0029,0,0.0476,0.0511,0.0532,0.0556,0.0612,0.0609,0.0666,0.0666,0.0685,0.0728,0.0643,0.0651,0.0483,0.0391,0.0249,0.0093,0.0108,-0.0039,-0.0069,-0.0041,-0.0042,-0.0042,-0.0043,-0.0032,-0.0031,-0.0031,-0.0031,0,0.0517,0.0529,0.0582,0.0616,0.0633,0.0674,0.074,0.0785,0.0787,0.084,0.0838,0.0768,0.0646,0.0469,0.0284,0.015,-0.0005,-0.0068,-0.0023,-0.0047,-0.013,-0.0126,-0.0182,-0.0184,-0.0185,-0.0186,-0.0187,0,0.0546,0.0572,0.0629,0.0668,0.0686,0.0748,0.0797,0.0833,0.0894,0.0915,0.0951,0.0851,0.0791,0.0511,0.0261,0.0015,-0.0017,-0.0125,-0.0146,-0.0121,-0.0145,-0.0139,-0.0134,-0.0138,-0.0139,-0.0139,-0.0139,0,0.0597,0.0607,0.0652,0.0729,0.0789,0.0868,0.0943,0.101,0.1055,0.109,0.1116,0.1066,0.0807,0.0561,0.0226,0.0062,-0.0085,-0.0139,-0.0121,-0.0102,-0.0084,-0.0107,-0.0102,-0.0142,-0.0141,-0.0141,-0.0141,-0.0141,0.0632,0.067,0.0721,0.0798,0.0874,0.0972,0.1042,0.1126,0.1218,0.1272,0.1234,0.1163,0.0892,0.0463,0.0178,-0.0114,-0.0103,-0.0207,-0.0204,-0.0201,-0.0182,-0.0167,-0.0237,-0.0237,-0.0237,-0.0237,-0.0238,0,0.0675,0.0715,0.0789,0.088,0.0966,0.0999,0.113,0.1193,0.1293,0.1339,0.1343,0.1084,0.0813,0.0506,0.0071,-0.0192,-0.0204,-0.0271,-0.0226,-0.0222,-0.0218,-0.0199,-0.0259,-0.026,-0.0261,-0.0262,0,0,0.0698,0.0765,0.0801,0.0936,0.1006,0.1121,0.1195,0.1279,0.1337,0.1363,0.1333,0.1271,0.0902,0.0586,0.0231,-0.0016,-0.0058,-0.0063,-0.0018,0.0081,0.0088,-0.0154,-0.0116,0,0,0,0,0]}],[{"header":{"parameterUnit":"m.s-1","parameterCategory":2,"la1":30.2991,"la2":30.254,"lo1":-89.0895,"lo2":-89.0444,"dy":0.0017,"dx":0.0017,"nx":28,"ny":28,"refTime":"2025-12-16T03:00:00:Z","depth":"4","parameterNumber":2,"parameterNumberName":"U-component_of_CURRENTS"},"data":[0,0,0,0,0,0,0,0,0,0,0,0,0,0,0,0,0,0,0,0,0,0,0,0,0,0,0,0,0,0,0,0,0,0,0,0,0,0,0,0,0,0,0,0,0,0,0,0,0,0,0,0,0,0,0,0,0,0,0.1402,0.1403,0,0.1461,0.1462,0.1462,0.1514,0.1515,0.1515,0.1516,0.1603,0.1604,0.1606,0,0,0,0,0,0,0,0,0,0,0,0,0,0.1317,0.1318,0.1402,0.1403,0.1404,0.1461,0.1462,0.1462,0.1514,0.1515,0.1515,0.1516,0.1602,0.1604,0.1606,0,0,0,0,0,0,0,0,0,0,0,0,0,0.1363,0.1319,0.1402,0.1436,0.144,0.1461,0.1462,0.1463,0.1514,0.1515,0.1516,0.1516,0.1601,0.1604,0.1607,0.1605,0,0,0.1615,0.1616,0,0,0,0,0,0,0,0,0.136,0.1366,0.143,0.1434,0.1438,0.1481,0.1463,0.1512,0.1514,0.1486,0.1516,0.1517,0.1564,0.157,0.1579,0.1609,0.1613,0.1615,0.1616,0.1618,0.1618,0,0,0,0,0,0,0,0.1357,0.1363,0.1426,0.1431,0.1436,0.1442,0.145,0.1472,0.152,0.1488,0.1492,0.1498,0.1566,0.1576,0.1581,0.1614,0.1615,0.1617,0.1619,0.162,0.1745,0.1747,0,0,0,0,0,0,0.1349,0.1361,0.1424,0.1427,0.14,0.1443,0.1452,0.1466,0.1519,0.1528,0.1497,0.15,0.1571,0.1578,0.1584,0.1671,0.1618,0.162,0.1622,0.1743,0.1745,0.1747,0,0,0,0,0,0,0.1347,0.1355,0.1421,0.1394,0.1403,0.1444,0.146,0.1467,0.151,0.1526,0.1535,0.1537,0.1572,0.1581,0.1633,0.1672,0.1621,0.1624,0.1741,0.1744,0.1746,0.179,0,0,0,0,0,0,0.1345,0.1354,0.1377,0.1394,0.1405,0.1454,0.1459,0.1468,0.151,0.1516,0.1562,0.1569,0.1573,0.1629,0.1636,0.1674,0.1626,0.1739,0.1742,0.1745,0.1787,0.1794,0.18,0,0,0,0,0,0.1342,0.136,0.1378,0.1387,0.1431,0.1455,0.1462,0.1492,0.1512,0.1534,0.1568,0.1569,0.1655,0.1633,0.164,0.168,0.1737,0.1741,0.1745,0.1783,0.1793,0.18,0,0,0,0,0,0,0.1339,0.1367,0.1388,0.1417,0.1446,0.1464,0.1489,0.1511,0.1555,0.1572,0.1587,0.1597,0.1657,0.1664,0.1639,0.1727,0.1698,0.1704,0.1725,0.1733,0.174,0.1739,0.1628,0,0,0,0,0,0.1348,0.1372,0.1399,0.1428,0.1444,0.1475,0.1495,0.1518,0.155,0.1572,0.1604,0.1641,0.1673,0.17,0.1725,0.1773,0.1778,0.1806,0.1813,0.1818,0.1824,0.1858,0.1869,0.176,0.176,0.176,0,0,0.1351,0.1375,0.1388,0.143,0.1456,0.1482,0.1491,0.1531,0.1564,0.1573,0.1641,0.1667,0.169,0.1743,0.1771,0.1758,0.1855,0.1823,0.1828,0.183,0.1864,0.1874,0.1883,0.1763,0.1762,0.1762,0,0,0.1359,0.1398,0.1417,0.1444,0.149,0.1509,0.1528,0.1569,0.1605,0.1661,0.1679,0.1729,0.1781,0.1805,0.1822,0.1884,0.1887,0.1902,0.1941,0.1975,0.1984,0.1992,0.2019,0.2029,0.1909,0.1909,0.1909,0,0.1371,0.1398,0.1427,0.1455,0.1482,0.1524,0.1552,0.1589,0.1647,0.1682,0.1692,0.1786,0.1807,0.1868,0.1893,0.1899,0.1918,0.1905,0.1983,0.1991,0.1998,0.2024,0.2034,0.1912,0.1911,0.1911,0.1911,0,0.1383,0.1418,0.1434,0.1484,0.1517,0.1551,0.1598,0.165,0.1698,0.1733,0.1817,0.1851,0.1907,0.1926,0.193,0.2002,0.1998,0.1983,0.1957,0.2011,0.2036,0.2046,0.1915,0.1914,0.1914,0.1913,0,0,0.1377,0.1431,0.1443,0.147,0.1539,0.1563,0.163,0.1693,0.1746,0.1813,0.1881,0.1944,0.1976,0.1997,0.2018,0.2053,0.2122,0.2049,0.205,0.2069,0.2203,0.2068,0.2065,0.2124,0.2126,0.2128,0.2202,0,0.1385,0.1427,0.146,0.1514,0.1538,0.1602,0.1657,0.1727,0.1792,0.1869,0.1926,0.1998,0.1999,0.2043,0.2078,0.2116,0.215,0.2104,0.2155,0.2157,0.2023,0.2073,0.2134,0.2209,0.2211,0.2213,0.2214,0,0.1384,0.1416,0.1461,0.153,0.1551,0.1598,0.17,0.1755,0.1863,0.1918,0.1999,0.2049,0.2134,0.2116,0.2207,0.2182,0.22,0.2216,0.2219,0.2082,0.2038,0.2144,0.2232,0.223,0.2229,0.2228,0.2227,0,0.1348,0.1417,0.1453,0.1479,0.1563,0.1615,0.1675,0.1779,0.184,0.1962,0.2025,0.2116,0.2185,0.2225,0.2273,0.2253,0.2354,0.2323,0.2216,0.2208,0.2287,0.2278,0.2375,0.2375,0.2375,0.2375,0.2374,0,0.1326,0.1359,0.1448,0.1469,0.1535,0.1606,0.1692,0.1766,0.1881,0.1949,0.2055,0.212,0.2219,0.2288,0.2304,0.2294,0.2382,0.223,0.2218,0.2305,0.2298,0.2295,0.2284,0.2377,0.2377,0.2376,0.2376,0,0.1266,0.1321,0.137,0.1474,0.1515,0.1565,0.1696,0.175,0.1874,0.1969,0.2017,0.2156,0.2237,0.2313,0.2387,0.2324,0.2331,0.2303,0.2409,0.24,0.2154,0.2146,0.2182,0.2177,0.2174,0.2171,0.2169,0,0.1233,0.1254,0.1366,0.1401,0.1454,0.1543,0.1602,0.1734,0.1788,0.1966,0.1998,0.2139,0.221,0.2214,0.2292,0.2314,0.2284,0.2271,0.219,0.215,0.2135,0.2132,0.2129,0.2163,0.2162,0.2161,0.216,0,0.1177,0.1229,0.127,0.1342,0.1411,0.1468,0.1564,0.1598,0.1741,0.1872,0.1937,0.199,0.2076,0.2126,0.2167,0.2173,0.2267,0.2233,0.2239,0.2163,0.2128,0.2116,0.2116,0.2148,0.215,0.2151,0.2151,0,0.1142,0.1155,0.1218,0.1267,0.1343,0.1371,0.1433,0.15,0.1574,0.1766,0.1782,0.1927,0.2052,0.2055,0.2089,0.2091,0.2049,0.197,0.1989,0.2003,0.1909,0.1836,0.1761,0,0,0,0,0,0.11,0.1099,0.1139,0.1182,0.1248,0.1292,0.1394,0.1458,0.1602,0.1603,0.1688,0.1757,0.1817,0.1893,0.1858,0.2006,0.2055,0.1955,0.1972,0.208,0.2094,0.1998,0,0,0,0,0,0,0.1068,0.1097,0.1103,0.1098,0.1115,0.1174,0.1234,0.133,0.1336,0.1491,0.1536,0.1649,0.1737,0.1823,0.1826,0.1847,0.1819,0.2045,0.2041,0.2072,0.2085,0.2096,0.2003,0,0,0,0,0]},{"header":{"parameterUnit":"m.s-1","parameterCategory":2,"la1":30.2991,"la2":30.254,"lo1":-89.0895,"lo2":-89.0444,"dy":0.0017,"dx":0.0017,"nx":28,"ny":28,"refTime":"2025-12-16T03:00:00:Z","depth":"4","parameterNumber":3,"parameterNumberName":"V-component_of_CURRENTS"},"data":[0,0,0,0,0,0,0,0,0,0,0,0,0,0,0,0,0,0,0,0,0,0,0,0,0,0,0,0,0,0,0,0,0,0,0,0,0,0,0,0,0,0,0,0,0,0,0,0,0,0,0,0,0,0,0,0,0,0,0.0189,0.0189,0,0.0163,0.0163,0.0163,0.0144,0.0144,0.0144,0.0144,0.0103,0.0102,0.0101,0,0,0,0,0,0,0,0,0,0,0,0,0,0.0195,0.0195,0.0189,0.0189,0.0189,0.0164,0.0163,0.0163,0.0144,0.0144,0.0144,0.0144,0.0103,0.0102,0.0101,0,0,0,0,0,0,0,0,0,0,0,0,0,0.0182,0.0195,0.0189,0.0177,0.0176,0.0164,0.0163,0.0162,0.0144,0.0144,0.0144,0.0144,0.0104,0.0102,0.0101,0.0093,0,0,0.0096,0.0095,0,0,0,0,0,0,0,0,0.0183,0.0182,0.0179,0.0178,0.0177,0.0158,0.015,0.0139,0.0144,0.0155,0.0144,0.0144,0.0121,0.0118,0.0112,0.0091,0.0089,0.0096,0.0095,0.0094,0.0094,0,0,0,0,0,0,0,0.0184,0.0183,0.0178,0.0179,0.0178,0.0164,0.0162,0.0148,0.0138,0.0154,0.0153,0.0152,0.012,0.0113,0.0111,0.0089,0.0096,0.0094,0.0093,0.0093,0.0054,0.0054,0,0,0,0,0,0,0.0191,0.0184,0.0179,0.0177,0.0181,0.0164,0.0162,0.0163,0.0138,0.0135,0.0152,0.0151,0.0116,0.0113,0.0109,0.0109,0.0094,0.0093,0.0092,0.0054,0.0054,0.0054,0,0,0,0,0,0,0.0191,0.0191,0.018,0.018,0.0178,0.0164,0.0166,0.0163,0.016,0.0137,0.0133,0.0153,0.0116,0.0111,0.0103,0.0107,0.0092,0.0091,0.0054,0.0054,0.0054,0.0101,0,0,0,0,0,0,0.0191,0.0191,0.0194,0.0181,0.0179,0.018,0.0166,0.0162,0.016,0.0159,0.0136,0.0132,0.0115,0.0106,0.0102,0.0104,0.0089,0.0054,0.0054,0.0054,0.01,0.0103,0.0105,0,0,0,0,0,0.0191,0.0201,0.0195,0.0194,0.0184,0.018,0.0178,0.0166,0.016,0.0163,0.0148,0.0133,0.0101,0.0105,0.01,0.0102,0.0055,0.0054,0.0054,0.0098,0.0102,0.0105,0,0,0,0,0,0,0.0208,0.02,0.0193,0.02,0.0192,0.0177,0.018,0.0171,0.0161,0.016,0.0137,0.0132,0.0124,0.0105,0.011,0.0088,0.0073,0.0072,0.0108,0.0111,0.0114,0.0124,0.0088,0,0,0,0,0,0.0213,0.0215,0.0205,0.021,0.0209,0.0195,0.0192,0.0184,0.0173,0.0169,0.0154,0.0134,0.0118,0.011,0.0094,0.0086,0.0057,0.0081,0.0084,0.0086,0.009,0.005,0.005,0.0053,0.0053,0.0053,0,0,0.0221,0.0216,0.0218,0.0213,0.0207,0.0212,0.0193,0.0193,0.0196,0.0166,0.0167,0.0146,0.0119,0.011,0.0104,0.0096,0.0069,0.0086,0.0088,0.0091,0.005,0.005,0.005,0.0053,0.0053,0.0053,0,0,0.0239,0.0235,0.0243,0.0241,0.0234,0.0227,0.023,0.0218,0.0213,0.0208,0.0187,0.0169,0.0148,0.0128,0.0115,0.0121,0.0087,0.0114,0.0135,0.0097,0.0097,0.0096,0.0059,0.0054,0.0113,0.0114,0.0114,0,0.0247,0.0258,0.0245,0.0253,0.0258,0.0238,0.0252,0.0243,0.0229,0.0226,0.0215,0.0178,0.0155,0.0141,0.0142,0.0128,0.0101,0.0129,0.0102,0.01,0.0099,0.006,0.0055,0.0116,0.0115,0.0115,0.0115,0,0.0271,0.0281,0.0288,0.0292,0.0295,0.0303,0.0293,0.0291,0.028,0.0267,0.0251,0.0217,0.0195,0.0181,0.0165,0.0144,0.0127,0.0112,0.0097,0.0102,0.006,0.0054,0.0119,0.0118,0.0117,0.0117,0,0,0.0286,0.0302,0.0305,0.0318,0.0318,0.0325,0.033,0.0329,0.0335,0.0307,0.0306,0.027,0.0248,0.0231,0.0201,0.0166,0.0131,0.0139,0.0136,0.0109,0.0045,0.0037,0.0029,0.0112,0.0111,0.0111,0.0021,0,0.0309,0.0339,0.0339,0.037,0.0387,0.0377,0.0386,0.038,0.0367,0.036,0.0314,0.0302,0.0267,0.0258,0.0217,0.0155,0.0116,0.0156,0.0039,0.0036,0.0033,0.0022,0.0108,0.0015,0.0014,0.0013,0.0012,0,0.0331,0.035,0.0387,0.0414,0.0421,0.0436,0.045,0.0456,0.0435,0.0423,0.0394,0.0361,0.0313,0.028,0.017,0.0198,0.0128,0.0072,0.0067,0.004,0.0016,0.0008,-0.0,0.0,0.0001,0.0002,0.0003,0,0.0349,0.0384,0.0418,0.0428,0.0452,0.0468,0.0481,0.0476,0.0491,0.0464,0.0465,0.0398,0.0368,0.0273,0.0162,0.0165,0.0034,0.0021,-0.0057,-0.0058,-0.0044,-0.0042,-0.0063,-0.0062,-0.0062,-0.0062,-0.0062,0,0.0372,0.04,0.0433,0.0452,0.0496,0.05,0.054,0.0537,0.0542,0.056,0.0503,0.049,0.0364,0.0279,0.0172,0.0038,0.0037,-0.0056,-0.0083,-0.0023,-0.0018,-0.0049,-0.0046,-0.0065,-0.0065,-0.0064,-0.0063,0,0.0385,0.0406,0.0449,0.0488,0.0507,0.0538,0.0591,0.0617,0.0612,0.0631,0.0627,0.0555,0.044,0.0307,0.0145,0.0056,-0.0074,-0.0122,-0.0048,-0.0069,-0.0144,-0.0138,-0.0217,-0.0218,-0.0219,-0.0219,-0.022,0,0.0395,0.0418,0.0479,0.0511,0.0533,0.0585,0.0624,0.0648,0.0676,0.0669,0.0675,0.0582,0.0514,0.0283,0.0135,-0.0075,-0.0105,-0.0174,-0.016,-0.0142,-0.016,-0.0153,-0.0145,-0.0221,-0.0222,-0.0222,-0.0222,0,0.0411,0.0433,0.047,0.0537,0.0589,0.0648,0.0702,0.0731,0.0753,0.0755,0.0712,0.0598,0.0464,0.0284,0.012,-0.003,-0.0129,-0.0184,-0.0183,-0.0171,-0.0148,-0.0164,-0.0156,-0.0225,-0.0225,-0.0224,-0.0224,0,0.0423,0.0449,0.0498,0.0558,0.0625,0.0684,0.0717,0.0748,0.0777,0.0769,0.075,0.061,0.053,0.0306,0.0155,0.0007,-0.0032,-0.0079,-0.0085,-0.0083,-0.0018,0.0032,-0.0015,0,0,0,0,0,0.0431,0.0459,0.0514,0.0579,0.0648,0.0689,0.0757,0.0784,0.081,0.0788,0.0773,0.0649,0.0427,0.033,0.018,0.0128,-0.0065,-0.0054,-0.0124,-0.0242,-0.0238,-0.0185,0,0,0,0,0,0,0.0434,0.0482,0.0508,0.0586,0.0634,0.0713,0.0759,0.078,0.0768,0.077,0.0655,0.0605,0.0389,0.0511,0.0174,0.0129,0.0063,-0.0155,-0.0158,-0.0244,-0.0241,-0.0238,-0.0181,0,0,0,0,0]}]]